This is the latest recevied weather packets stored in our database for station/object KC0UFP. If no packets are shown the sender has not sent any weather packets the latest 10 day(s).
| Time | Temp. | Humidity | Pressure | Rain* | Wind** | Luminosity | Snow |
|---|---|---|---|---|---|---|---|
| 1777742112 | 19.44° C | 37% | 1017.6 hPa | 0 mm | - | 1058 W/m² | - |
| 1777741810 | 20° C | 35% | 1017.7 hPa | 0 mm | - | 1016 W/m² | - |
| 1777741506 | 18.89° C | 36% | 1017.7 hPa | 0 mm | - | 1001 W/m² | - |
| 1777741203 | 19.44° C | 37% | 1017.8 hPa | 0 mm | - | 993 W/m² | - |
| 1777740899 | 19.44° C | 34% | 1017.8 hPa | 0 mm | - | 990 W/m² | - |
| 1777740596 | 20° C | 35% | 1017.9 hPa | 0 mm | - | 981 W/m² | - |
| 1777740292 | 19.44° C | 38% | 1017.9 hPa | 0 mm | - | 974 W/m² | - |
| 1777739989 | 19.44° C | 38% | 1017.9 hPa | 0 mm | - | 963 W/m² | - |
| 1777739685 | 18.89° C | 38% | 1017.8 hPa | 0 mm | - | 961 W/m² | - |
| 1777739383 | 18.89° C | 37% | 1017.9 hPa | 0 mm | - | 949 W/m² | - |
| 1777739080 | 18.89° C | 41% | 1017.9 hPa | 0 mm | - | 941 W/m² | - |
| 1777738777 | 17.78° C | 42% | 1018 hPa | 0 mm | - | 934 W/m² | - |
| 1777738473 | 18.33° C | 39% | 1017.8 hPa | 0 mm | - | 924 W/m² | - |
| 1777738171 | 17.78° C | 44% | 1017.7 hPa | 0 mm | - | 916 W/m² | - |
| 1777737869 | 17.78° C | 45% | 1018.1 hPa | 0 mm | - | 905 W/m² | - |
| 1777737568 | 18.33° C | 48% | 1018.1 hPa | 0 mm | - | 894 W/m² | - |
| 1777737266 | 17.78° C | 48% | 1018.1 hPa | 0 mm | - | 880 W/m² | - |
| 1777736961 | 17.78° C | 47% | 1018 hPa | 0 mm | - | 867 W/m² | - |
| 1777736055 | 17.22° C | 47% | 1018.2 hPa | 0 mm | - | 825 W/m² | - |
| 1777735752 | 17.22° C | 46% | 1018.3 hPa | 0 mm | - | 805 W/m² | - |
| 1777735449 | 16.67° C | 51% | 1018.1 hPa | 0 mm | - | 791 W/m² | - |
| 1777735147 | 16.67° C | 51% | 1018.1 hPa | 0 mm | - | 771 W/m² | - |
| 1777734843 | 16.67° C | 54% | 1018 hPa | 0 mm | - | 757 W/m² | - |
| 1777734541 | 16.11° C | 54% | 1018.2 hPa | 0 mm | - | 738 W/m² | - |
| 1777734237 | 16.11° C | 55% | 1018.3 hPa | 0 mm | - | 724 W/m² | - |
* Rain latest hour (hover to see other rain measurements)
** Current wind speed in m/s (hover to see current wind gust speed)